Livermore, CA

10:28 AM PDT on April 23, 2018 (GMT -0700)
Livermore Municipal

Weather History for KLVK - May, 2013

Change the Weather History Date:

Wednesday, May 8, 2013

  Actual Average Record
Temperature  
Mean Temperature 61 °F 61 °F  
Max Temperature 70 °F 74 °F 98 °F (2001)
Min Temperature 52 °F 48 °F 36 °F (1964)
Degree Days  
Heating Degree Days 4 5  
Month to date heating degree days 8 42  
Since 1 July heating degree days 2335 2664  
Cooling Degree Days 0 1  
Month to date cooling degree days 33 8  
Year to date cooling degree days 66 17  
Growing Degree Days 11 (Base 50)    
Moisture  
Dew Point 49 °F    
Average Humidity 68    
Maximum Humidity 89    
Minimum Humidity 47    
Precipitation  
Precipitation 0.00 in 0.02 in 0.48 in (1955)
Month to date precipitation 0.09 0.23  
Year to date precipitation 2.05 9.47  
Since 1 July precipitation 10.34  
Sea Level Pressure  
Sea Level Pressure 30.10 in    
Wind  
Wind Speed 10 mph (West)    
Max Wind Speed 20 mph    
Max Gust Speed 25 mph    
Visibility 10 miles    
Events      
T = Trace of Precipitation, MM = Missing Value Source: NWS Daily Summary

Daily Weather History Graph

Daily Weather History Graph

Search for Another Location

Airport or City:

Astronomy

May. 08, 2013 Rise Set
Actual Time 6:03 AM PDT 8:04 PM PDT
Civil Twilight 5:35 AM PDT 8:33 PM PDT
Nautical Twilight 4:59 AM PDT 9:08 PM PDT
Astronomical Twilight 4:22 AM PDT 9:46 PM PDT
Moon 5:13 AM PDT (5/8) 7:08 PM PDT (5/8)
Length of Visible Light 14h 58m
Length of Day
14h 00m
Waning Crescent, 1% of the Moon is Illuminated
May 8
Waning Crescent
May 9
New
May 17
First Quarter
May 24
Full
May 31
Last Quarter

Hourly Weather History & Observations

Time (PDT) Temp. Dew Point Humidity Pressure Visibility Wind Dir Wind Speed Gust Speed Precip Events Conditions
12:53 AM 55.0 °F 51.1 °F 86% 30.04 in 10.0 mi WNW 3.5 mph - N/A   Clear
1:53 AM 53.1 °F 50.0 °F 89% 30.04 in 10.0 mi West 5.8 mph - N/A   Clear
2:53 AM 53.1 °F 50.0 °F 89% 30.04 in 9.0 mi West 4.6 mph - N/A   Clear
3:53 AM 53.1 °F 50.0 °F 89% 30.05 in 10.0 mi West 4.6 mph - N/A   Scattered Clouds
4:53 AM 53.1 °F 50.0 °F 89% 30.06 in 10.0 mi West 4.6 mph - N/A   Mostly Cloudy
5:53 AM 54.0 °F 50.0 °F 86% 30.06 in 10.0 mi SW 4.6 mph - N/A   Overcast
6:20 AM 53.6 °F 50.0 °F 88% 30.08 in 10.0 mi South 3.5 mph - N/A   Overcast
6:53 AM 55.0 °F 50.0 °F 83% 30.09 in 10.0 mi WSW 6.9 mph - N/A   Overcast
7:53 AM 55.9 °F 50.0 °F 80% 30.10 in 10.0 mi SW 4.6 mph - N/A   Mostly Cloudy
8:00 AM 55.4 °F 50.0 °F 82% 30.10 in 10.0 mi WSW 4.6 mph - N/A   Overcast
8:30 AM 57.2 °F 50.0 °F 77% 30.11 in 10.0 mi Variable 5.8 mph - N/A   Mostly Cloudy
8:53 AM 57.9 °F 50.0 °F 75% 30.11 in 10.0 mi WNW 8.1 mph - N/A   Mostly Cloudy
9:53 AM 59.0 °F 50.0 °F 72% 30.11 in 10.0 mi NW 8.1 mph - N/A   Mostly Cloudy
10:53 AM 61.0 °F 50.0 °F 67% 30.11 in 10.0 mi WNW 8.1 mph - N/A   Mostly Cloudy
11:53 AM 63.0 °F 48.9 °F 60% 30.11 in 10.0 mi WNW 11.5 mph - N/A   Mostly Cloudy
12:53 PM 66.9 °F 48.9 °F 52% 30.10 in 10.0 mi WNW 13.8 mph - N/A   Mostly Cloudy
1:53 PM 69.1 °F 48.9 °F 49% 30.09 in 10.0 mi West 16.1 mph - N/A   Scattered Clouds
2:53 PM 68.0 °F 48.0 °F 49% 30.09 in 10.0 mi WNW 17.3 mph - N/A   Partly Cloudy
3:53 PM 68.0 °F 48.0 °F 49% 30.07 in 10.0 mi West 15.0 mph - N/A   Clear
4:53 PM 66.9 °F 46.9 °F 49% 30.07 in 10.0 mi WNW 16.1 mph - N/A   Clear
5:53 PM 64.0 °F 48.9 °F 58% 30.07 in 10.0 mi West 17.3 mph - N/A   Clear
6:53 PM 60.1 °F 48.9 °F 67% 30.07 in 10.0 mi WNW 15.0 mph - N/A   Partly Cloudy
7:53 PM 55.0 °F 48.9 °F 80% 30.09 in 10.0 mi West 11.5 mph - N/A   Partly Cloudy
8:53 PM 53.1 °F 48.9 °F 86% 30.12 in 10.0 mi West 11.5 mph - N/A   Scattered Clouds
9:48 PM 53.6 °F 48.2 °F 82% 30.15 in 10.0 mi West 9.2 mph - N/A   Mostly Cloudy
9:53 PM 53.1 °F 48.9 °F 86% 30.15 in 10.0 mi West 9.2 mph - N/A   Mostly Cloudy
10:03 PM 53.6 °F 48.2 °F 82% 30.15 in 10.0 mi West 9.2 mph - N/A   Scattered Clouds
10:19 PM 53.6 °F 48.2 °F 82% 30.15 in 10.0 mi West 11.5 mph - N/A   Mostly Cloudy
10:53 PM 54.0 °F 48.9 °F 83% 30.15 in 10.0 mi West 8.1 mph - N/A   Overcast
11:53 PM 54.0 °F 48.9 °F 83% 30.14 in 10.0 mi SW 6.9 mph - N/A   Overcast